{"data":{"norad_id":67862,"epoch":"2026-09-19T07:41:02.408928Z","epoch_age_seconds":168336,"freshness":"FRESH","line1":"1 67862U 26034N   26262.32016677  .00009712  00000+0  29885-3 0  9997","line2":"2 67862  53.1605  23.2740 0001275 103.0103 257.1042 15.34330757 33704","mean_motion":15.34330757,"eccentricity":0.0001275,"inclination_deg":53.1605,"raan_deg":23.274,"arg_perigee_deg":103.0103,"mean_anomaly_deg":257.1042,"bstar":0.00029885,"rev_number":3370,"period_min":93.851993348263,"perigee_km":462.03681936347,"apogee_km":463.78128610692,"semimajor_km":6841.0460527352,"source":"CELESTRAK","updated_at":"2026-09-20T09:00:43.675920Z"}}